DW1980 Weather Reports


time (UTC)temp
C
wind
direction
speed
KPH
gust
KPH
rain 1hr
cm
rain 24hr
cm
rain mn
cm
humidity
%
barometer
mb
20260504160407 20 166 9.7 17.7 0.00 0.00 0.00 39 1012.1
20260504160112 20 186 6.4 16.1 0.00 0.00 0.00 45 1012.3
20260504150851 18 53 8.0 22.5 0.00 0.00 0.00 42 1012.8
20260504150343 18 284 8.0 20.9 0.00 0.00 0.00 43 1012.8
20260504150112 18 222 8.0 20.9 0.00 0.00 0.00 41 1013.1
20260504140847 16 230 8.0 14.5 0.00 0.00 0.00 48 1013.2
20260504140339 16 202 6.4 12.9 0.00 0.00 0.00 48 1013.2
20260504130344 13 228 4.8 8.0 0.00 0.00 0.00 53 1013.8
20260504130111 13 192 3.2 8.0 0.00 0.00 0.00 53 1014.0
20260504120110 11 188 3.2 12.9 0.00 0.00 0.00 61 1014.3
20260504110345 5 221 3.2 3.2 0.00 0.00 0.00 85 1013.9
20260504110107 5 215 1.6 3.2 0.00 0.00 0.00 86 1014.1
20260504100343 5 256 0.0 3.2 0.00 0.00 0.00 85 1013.7
20260504100120 4 256 0.0 4.8 0.00 0.00 0.00 85 1013.9
20260504081848 3 270 0.0 0.0 0.00 0.00 0.00 88 1013.5
20260504081614 3 270 0.0 0.0 0.00 0.00 0.00 88 1013.7
20260504081541 3 0 0.0 0.0 0.00 0.00 0.00 87 1012.9
20260504081338 3 276 0.0 0.0 0.00 0.00 0.00 88 1013.5
20260504080850 3 284 0.0 0.0 0.00 0.00 0.00 88 1013.5
20260504080340 3 285 0.0 0.0 0.00 0.00 0.00 88 1013.3
20260504080116 3 285 0.0 0.0 0.00 0.00 0.00 88 1013.5
20260504070355 3 285 0.0 0.0 0.00 0.00 0.00 88 1013.2
20260504070121 3 285 0.0 0.0 0.00 0.00 0.00 88 1013.4
20260504060116 3 288 0.0 0.0 0.00 0.00 0.00 89 1013.1
20260504050357 3 288 0.0 0.0 0.00 0.00 0.00 86 1012.7
20260504050117 3 288 0.0 0.0 0.00 0.00 0.00 86 1012.9
20260504045844 3 288 0.0 0.0 0.00 0.00 0.00 86 1012.7
20260504045353 3 288 0.0 0.0 0.00 0.00 0.00 86 1012.7
20260504044843 3 288 0.0 0.0 0.00 0.00 0.00 85 1012.7
20260504044614 3 288 0.0 0.0 0.00 0.00 0.00 85 1012.8
20260504044543 3 0 0.0 0.0 0.00 0.00 0.00 85 1012.0
20260504044415 3 288 0.0 0.0 0.00 0.00 0.00 85 1012.6
20260504043843 3 288 0.0 0.0 0.00 0.00 0.00 85 1012.6
20260504043354 3 288 0.0 0.0 0.00 0.00 0.00 85 1012.6
20260504043119 3 288 0.0 0.0 0.00 0.00 0.00 85 1012.7
20260504043049 3 0 0.0 0.0 0.00 0.00 0.00 84 1012.0
20260504042841 4 288 0.0 0.0 0.00 0.00 0.00 84 1012.6
20260504042351 4 288 0.0 0.0 0.00 0.00 0.00 84 1012.6
20260504041841 4 288 0.0 0.0 0.00 0.00 0.00 84 1012.4
20260504041608 3 288 0.0 0.0 0.00 0.00 0.00 84 1012.5
20260504041541 3 0 0.0 0.0 0.00 0.00 0.00 83 1011.8
20260504041351 4 288 0.0 0.0 0.00 0.00 0.00 84 1012.4
20260504040841 4 288 0.0 0.0 0.00 0.00 0.00 83 1012.4
20260504040351 4 288 0.0 0.0 0.00 0.00 0.00 83 1012.4
20260504040125 4 288 0.0 0.0 0.00 0.00 0.00 83 1012.5
20260504040041 4 0 0.0 0.0 0.00 0.00 0.00 82 1011.7
20260504035837 4 288 0.0 0.0 0.00 0.00 0.00 83 1012.3
20260504035407 5 288 0.0 0.0 0.00 0.00 0.00 83 1012.4
20260504034835 5 288 0.0 1.6 0.00 0.00 0.00 82 1012.4
20260504034603 4 288 0.0 1.6 0.00 0.00 0.00 82 1012.5
20260504034544 4 0 0.0 1.6 0.00 0.00 0.00 81 1011.7
20260504034347 5 288 0.0 1.6 0.00 0.00 0.00 81 1012.5
20260504033837 5 288 0.0 0.0 0.00 0.00 0.00 81 1012.4
20260504033347 5 288 0.0 0.0 0.00 0.00 0.00 81 1012.3
20260504033112 5 288 0.0 0.0 0.00 0.00 0.00 81 1012.5
20260504033040 5 0 0.0 0.0 0.00 0.00 0.00 80 1011.7
20260504032855 5 288 0.0 0.0 0.00 0.00 0.00 80 1012.4
20260504032345 5 288 0.0 0.0 0.00 0.00 0.00 80 1012.4
20260504031836 5 288 0.0 1.6 0.00 0.00 0.00 79 1012.3
20260504031604 5 288 0.0 1.6 0.00 0.00 0.00 79 1012.5
20260504031545 5 0 0.0 1.6 0.00 0.00 0.00 78 1011.6
20260504031346 5 288 0.0 1.6 0.00 0.00 0.00 78 1012.4
20260504030837 5 288 0.0 1.6 0.00 0.00 0.00 78 1012.3
20260504030348 5 288 0.0 0.0 0.00 0.00 0.00 77 1012.3
20260504030113 5 288 0.0 0.0 0.00 0.00 0.00 77 1012.5
20260504030047 5 0 0.0 0.0 0.00 0.00 0.00 76 1011.7
20260504025916 6 288 0.0 0.0 0.00 0.00 0.00 76 1012.3
20260504025345 6 288 0.0 0.0 0.00 0.00 0.00 76 1012.4
20260504024838 6 288 0.0 0.0 0.00 0.00 0.00 75 1012.4
20260504024605 6 288 0.0 0.0 0.00 0.00 0.00 75 1012.6
20260504024540 6 0 0.0 0.0 0.00 0.00 0.00 75 1011.8
20260504024350 6 288 0.0 0.0 0.00 0.00 0.00 75 1012.5
20260504023838 6 288 0.0 0.0 0.00 0.00 0.00 74 1012.5
20260504023349 6 288 0.0 0.0 0.00 0.00 0.00 74 1012.4
20260504023109 6 288 0.0 0.0 0.00 0.00 0.00 74 1012.5
20260504023040 6 0 0.0 0.0 0.00 0.00 0.00 73 1011.7
20260504022916 6 288 0.0 0.0 0.00 0.00 0.00 73 1012.4
20260504022343 6 288 0.0 0.0 0.00 0.00 0.00 73 1012.4
20260504021851 6 288 0.0 0.0 0.00 0.00 0.00 72 1012.4
20260504021538 6 0 0.0 0.0 0.00 0.00 0.00 70 1011.7
20260504021503 6 288 0.0 0.0 0.00 0.00 0.00 71 1012.5
20260504021402 7 288 0.0 0.0 0.00 0.00 0.00 71 1012.3
20260504020851 7 288 0.0 0.0 0.00 0.00 0.00 70 1012.2
20260504020342 7 288 0.0 0.0 0.00 0.00 0.00 69 1012.3
20260504020043 7 0 0.0 0.0 0.00 0.00 0.00 68 1011.7
20260504015336 7 288 0.0 0.0 0.00 0.00 0.00 68 1012.2
20260504014846 7 288 0.0 0.0 0.00 0.00 0.00 68 1012.2
20260504014610 7 288 0.0 0.0 0.00 0.00 0.00 68 1012.2
20260504014543 7 0 0.0 1.6 0.00 0.00 0.00 68 1011.6
20260504014337 8 288 0.0 1.6 0.00 0.00 0.00 68 1012.2
20260504013908 8 288 0.0 1.6 0.00 0.00 0.00 67 1012.2
20260504013357 8 288 0.0 1.6 0.00 0.00 0.00 66 1012.1
20260504013119 8 288 0.0 3.2 0.00 0.00 0.00 65 1012.1
20260504013043 8 0 0.0 3.2 0.00 0.00 0.00 65 1011.5
20260504012843 8 288 0.0 3.2 0.00 0.00 0.00 65 1012.1
20260504012353 8 288 0.0 3.2 0.00 0.00 0.00 64 1012.1
20260504011844 9 288 0.0 1.6 0.00 0.00 0.00 62 1012.0
20260504011613 8 288 0.0 1.6 0.00 0.00 0.00 62 1012.2
20260504011546 9 0 0.0 1.6 0.00 0.00 0.00 62 1011.4
20260504011354 9 288 0.0 1.6 0.00 0.00 0.00 62 1012.0
20260504010902 10 288 0.0 1.6 0.00 0.00 0.00 61 1011.9
20260504010414 10 288 0.0 1.6 0.00 0.00 0.00 60 1011.8
20260504010111 10 288 0.0 1.6 0.00 0.00 0.00 58 1011.9
20260504010041 10 0 0.0 1.6 0.00 0.00 0.00 58 1011.2
20260504005918 10 288 0.0 1.6 0.00 0.00 0.00 57 1011.7
20260504005405 10 288 0.0 1.6 0.00 0.00 0.00 56 1011.6
20260504004915 11 288 0.0 1.6 0.00 0.00 0.00 54 1011.6
20260504004622 10 288 0.0 3.2 0.00 0.00 0.00 54 1011.7
20260504004538 11 0 0.0 3.2 0.00 0.00 0.00 53 1011.0
20260504004344 11 288 0.0 3.2 0.00 0.00 0.00 52 1011.6
20260504003836 11 288 1.6 3.2 0.00 0.00 0.00 52 1011.5
20260504003348 12 288 0.0 1.6 0.00 0.00 0.00 52 1011.4
20260504003119 11 288 0.0 1.6 0.00 0.00 0.00 50 1011.5
20260504003037 11 0 0.0 1.6 0.00 0.00 0.00 50 1010.8
20260504002836 12 288 0.0 1.6 0.00 0.00 0.00 49 1011.3
20260504002346 12 288 0.0 3.2 0.00 0.00 0.00 47 1011.2
20260504001837 12 288 0.0 3.2 0.00 0.00 0.00 45 1011.1
20260504001609 12 288 0.0 3.2 0.00 0.00 0.00 45 1011.2
20260504001544 12 288 1.6 4.8 0.00 0.00 0.00 44 1010.6
20260504001347 12 288 3.2 3.2 0.00 0.00 0.00 43 1011.1
20260504000837 13 289 0.0 6.4 0.00 0.00 0.00 42 1011.0
20260504000348 13 291 1.6 6.4 0.00 0.00 0.00 41 1010.9
20260504000130 13 291 1.6 6.4 0.00 0.00 0.00 41 1011.0
20260504000047 13 292 3.2 8.0 0.00 0.00 0.00 40 1010.4
20260503235855 13 299 3.2 8.0 0.00 0.00 0.00 40 1010.9
20260503235407 13 284 3.2 14.5 0.00 0.00 0.00 41 1010.8
20260503234837 13 292 6.4 14.5 0.00 0.00 0.00 39 1010.7
20260503234605 13 298 3.2 11.3 0.00 0.00 0.00 40 1010.8
20260503234540 13 291 3.2 11.3 0.00 0.00 0.00 40 1010.3
20260503234348 13 305 4.8 11.3 0.00 0.00 0.00 39 1010.7
20260503233836 13 311 1.6 8.0 0.00 0.00 0.00 40 1010.6
20260503233348 13 286 3.2 8.0 0.00 0.00 0.00 38 1010.5
20260503233111 13 297 1.6 8.0 0.00 0.00 0.00 38 1010.6
20260503233038 13 287 3.2 9.7 0.00 0.00 0.00 37 1010.1
20260503232855 13 277 4.8 8.0 0.00 0.00 0.00 37 1010.5
20260503232345 14 311 4.8 8.0 0.00 0.00 0.00 36 1010.4
20260503231836 14 324 1.6 12.9 0.00 0.00 0.00 38 1010.3
20260503231605 13 275 4.8 17.7 0.00 0.00 0.00 39 1010.4
20260503231543 14 298 3.2 17.7 0.00 0.00 0.00 39 1009.9
20260503231347 14 296 3.2 17.7 0.00 0.00 0.00 36 1010.3
20260503230837 14 293 4.8 12.9 0.00 0.00 0.00 36 1010.3
20260503230349 14 295 3.2 24.1 0.00 0.00 0.00 35 1010.2
20260503230116 14 294 4.8 24.1 0.00 0.00 0.00 35 1010.3
20260503230059 14 279 9.7 24.1 0.00 0.00 0.00 36 1009.8
20260503225836 14 342 11.3 20.9 0.00 0.00 0.00 35 1010.2
20260503225346 14 274 4.8 12.9 0.00 0.00 0.00 35 1010.1
20260503224840 14 279 4.8 24.1 0.00 0.00 0.00 35 1010.1
20260503224602 14 271 6.4 24.1 0.00 0.00 0.00 35 1010.1
20260503224536 14 302 9.7 24.1 0.00 0.00 0.00 34 1009.6
20260503224348 14 293 11.3 24.1 0.00 0.00 0.00 34 1010.1
20260503223839 14 338 4.8 12.9 0.00 0.00 0.00 35 1010.1
20260503223411 14 293 4.8 16.1 0.00 0.00 0.00 35 1010.0
20260503223110 13 265 6.4 16.1 0.00 0.00 0.00 34 1010.1
20260503223042 14 263 4.8 16.1 0.00 0.00 0.00 33 1009.6
20260503222837 14 301 4.8 16.1 0.00 0.00 0.00 34 1010.0
20260503222347 14 284 4.8 20.9 0.00 0.00 0.00 33 1010.0
20260503221838 14 280 9.7 20.9 0.00 0.00 0.00 35 1010.1
20260503221602 14 256 6.4 20.9 0.00 0.00 0.00 35 1010.1
20260503221538 14 293 9.7 22.5 0.00 0.00 0.00 33 1009.6
20260503221349 14 280 11.3 22.5 0.00 0.00 0.00 33 1010.0
20260503220839 14 323 9.7 22.5 0.00 0.00 0.00 33 1010.1
20260503220350 15 284 4.8 25.7 0.00 0.00 0.00 35 1010.1
20260503220112 14 276 8.0 25.7 0.00 0.00 0.00 32 1010.2
20260503220040 14 306 11.3 25.7 0.00 0.00 0.00 33 1009.6
20260503215857 15 319 11.3 25.7 0.00 0.00 0.00 33 1010.2
20260503215345 15 273 12.9 24.1 0.00 0.00 0.00 33 1010.1
20260503214916 15 292 9.7 25.7 0.00 0.00 0.00 33 1010.1
20260503214603 14 69 9.7 25.7 0.00 0.00 0.00 33 1010.2
20260503214542 14 229 8.0 25.7 0.00 0.00 0.00 32 1009.5
20260503214345 15 250 6.4 25.7 0.00 0.00 0.00 35 1010.0
20260503213855 15 291 11.3 24.1 0.00 0.00 0.00 34 1010.0
20260503213345 15 279 12.9 27.4 0.00 0.00 0.00 32 1009.9
20260503213111 14 288 9.7 27.4 0.00 0.00 0.00 34 1010.0
20260503213043 14 355 12.9 32.2 0.00 0.00 0.00 33 1009.4
20260503212853 15 224 14.5 32.2 0.00 0.00 0.00 34 1009.9
20260503212342 15 277 12.9 32.2 0.00 0.00 0.00 36 1009.8
20260503211915 14 64 4.8 25.7 0.00 0.00 0.00 36 1009.9
20260503211622 14 290 8.0 25.7 0.00 0.00 0.00 36 1009.9
20260503211558 14 267 9.7 25.7 0.00 0.00 0.00 35 1009.3
20260503211344 14 275 12.9 25.7 0.00 0.00 0.00 36 1010.0
20260503210854 14 246 9.7 24.1 0.00 0.00 0.00 36 1009.9
20260503210345 14 263 8.0 22.5 0.00 0.00 0.00 36 1009.9
20260503210112 14 279 8.0 22.5 0.00 0.00 0.00 39 1010.0
20260503210039 14 310 8.0 22.5 0.00 0.00 0.00 36 1009.4
20260503205912 14 309 8.0 22.5 0.00 0.00 0.00 36 1009.8
20260503205404 14 277 8.0 22.5 0.00 0.00 0.00 38 1009.8
20260503204855 14 276 9.7 27.4 0.00 0.00 0.00 36 1009.8
20260503204602 14 292 6.4 27.4 0.00 0.00 0.00 40 1009.9
20260503204540 14 284 9.7 27.4 0.00 0.00 0.00 37 1009.3
20260503204344 14 279 14.5 27.4 0.00 0.00 0.00 38 1009.8
20260503203914 14 259 6.4 25.7 0.00 0.00 0.00 37 1009.8
20260503203403 14 249 9.7 25.7 0.00 0.00 0.00 37 1009.9
20260503203106 14 258 9.7 25.7 0.00 0.00 0.00 38 1010.0
20260503203046 13 250 9.7 29.0 0.00 0.00 0.00 36 1009.3
20260503202848 14 269 8.0 29.0 0.00 0.00 0.00 37 1010.0
20260503202338 14 336 12.9 29.0 0.00 0.00 0.00 37 1010.0
20260503201849 13 281 8.0 25.7 0.00 0.00 0.00 38 1010.0
20260503201617 13 258 12.9 35.4 0.00 0.00 0.00 37 1010.2
20260503201540 13 297 11.3 35.4 0.00 0.00 0.00 35 1009.4
20260503201340 14 202 9.7 35.4 0.00 0.00 0.00 37 1010.1
20260503200850 14 300 12.9 25.7 0.00 0.00 0.00 39 1010.1
20260503200342 14 261 12.9 24.1 0.00 0.00 0.00 39 1010.0
20260503200108 14 265 8.0 24.1 0.00 0.00 0.00 38 1010.1
20260503200054 14 5 9.7 30.6 0.00 0.00 0.00 38 1009.4
20260503195851 14 286 11.3 30.6 0.00 0.00 0.00 38 1010.1
20260503195400 14 346 6.4 30.6 0.00 0.00 0.00 40 1010.0
20260503194849 14 253 8.0 30.6 0.00 0.00 0.00 40 1010.2
20260503194617 13 259 11.3 33.8 0.00 0.00 0.00 39 1010.2
20260503194544 13 276 12.9 33.8 0.00 0.00 0.00 38 1009.6
20260503194338 14 302 11.3 33.8 0.00 0.00 0.00 40 1010.2
20260503193848 14 17 8.0 25.7 0.00 0.00 0.00 41 1010.2
20260503193340 14 240 12.9 35.4 0.00 0.00 0.00 41 1010.2
20260503193117 13 206 9.7 35.4 0.00 0.00 0.00 40 1010.3
20260503193047 13 313 12.9 35.4 0.00 0.00 0.00 39 1009.6
20260503192847 14 292 17.7 35.4 0.00 0.00 0.00 39 1010.3
20260503192336 14 324 8.0 37.0 0.00 0.00 0.00 40 1010.4
20260503191847 14 254 11.3 38.6 0.00 0.00 0.00 42 1010.4
20260503191615 13 265 6.4 24.1 0.00 0.00 0.00 42 1010.4
20260503191543 13 286 11.3 24.1 0.00 0.00 0.00 40 1009.6
20260503191342 13 292 11.3 20.9 0.00 0.00 0.00 41 1010.4
20260503190851 13 304 11.3 19.3 0.00 0.00 0.00 40 1010.6
20260503190343 13 289 6.4 27.4 0.00 0.00 0.00 42 1010.5
20260503190107 13 186 8.0 27.4 0.00 0.00 0.00 42 1010.7
20260503190050 13 299 11.3 27.4 0.00 0.00 0.00 41 1010.0
20260503185849 13 255 14.5 27.4 0.00 0.00 0.00 45 1010.7
20260503185338 13 221 8.0 22.5 0.00 0.00 0.00 42 1010.7
20260503184847 13 273 12.9 24.1 0.00 0.00 0.00 48 1010.8
20260503184611 12 275 8.0 24.1 0.00 0.00 0.00 50 1010.9
20260503184543 12 299 6.4 24.1 0.00 0.00 0.00 45 1010.1
20260503184337 12 319 9.7 24.1 0.00 0.00 0.00 47 1010.7
20260503183847 12 294 9.7 22.5 0.00 0.00 0.00 46 1010.8
20260503183358 12 295 4.8 25.7 0.00 0.00 0.00 46 1010.8
20260503183118 12 355 14.5 30.6 0.00 0.00 0.00 42 1010.9
20260503183044 12 288 9.7 30.6 0.00 0.00 0.00 42 1010.2
20260503182844 13 319 11.3 30.6 0.00 0.00 0.00 46 1010.9
20260503182413 14 325 8.0 24.1 0.00 0.00 0.00 44 1010.9
20260503181841 13 311 11.3 24.1 0.00 0.00 0.00 47 1010.8
20260503181636 12 30 6.4 24.1 0.00 0.00 0.00 47 1010.8
20260503181602 12 310 8.0 24.1 0.00 0.00 0.00 47 1010.1
20260503181352 12 337 8.0 24.1 0.00 0.00 0.00 45 1010.7
20260503180841 12 311 8.0 37.0 0.00 0.00 0.00 45 1010.8
20260503180414 12 240 16.1 37.0 0.00 0.00 0.00 44 1010.7
20260503180118 12 306 8.0 32.2 0.00 0.00 0.00 45 1010.9
20260503180050 12 308 12.9 32.2 0.00 0.00 0.00 46 1010.2
20260503175839 12 276 9.7 32.2 0.00 0.00 0.00 44 1010.9
20260503175350 12 351 12.9 27.4 0.00 0.00 0.00 44 1011.0
20260503174840 13 355 9.7 29.0 0.00 0.00 0.00 44 1010.7
20260503174609 12 28 8.0 29.0 0.00 0.00 0.00 46 1011.0
20260503174546 12 303 9.7 30.6 0.00 0.00 0.00 47 1010.2
20260503174412 12 311 12.9 30.6 0.00 0.00 0.00 46 1010.9
20260503173840 11 27 12.9 30.6 0.00 0.00 0.00 47 1010.8
20260503173349 12 327 16.1 30.6 0.00 0.00 0.00 48 1011.0
20260503173113 12 288 8.0 35.4 0.00 0.00 0.00 54 1011.0
20260503173052 12 315 11.3 35.4 0.00 0.00 0.00 49 1010.5
20260503172343 12 331 11.3 32.2 0.00 0.00 0.00 46 1011.0
20260503171853 11 298 16.1 32.2 0.00 0.00 0.00 45 1011.0
20260503171621 11 290 16.1 30.6 0.00 0.00 0.00 45 1011.2
20260503171542 11 279 11.3 25.7 0.00 0.00 0.00 45 1010.6
20260503171342 12 263 9.7 25.7 0.00 0.00 0.00 44 1011.0
20260503170912 11 283 9.7 25.7 0.00 0.00 0.00 46 1011.0
20260503170403 11 286 11.3 30.6 0.00 0.00 0.00 43 1011.0
20260503170108 11 288 8.0 32.2 0.00 0.00 0.00 43 1011.2